Weather History for Jennings, LA

Change the Weather History Date:

Wednesday, April 17, 2013

  Actual Average (KLCH) Record (KLCH)
Temperature  
Mean Temperature 77 °F 68 °F  
Max Temperature 82 °F 78 °F 89 °F (2003)
Min Temperature 72 °F 59 °F 41 °F (1999)
Degree Days  
Heating Degree Days 0 1  
Month to date heating degree days 36  
Since 1 July heating degree days 1480  
Cooling Degree Days 12 5  
Month to date cooling degree days 62  
Year to date cooling degree days 134  
Growing Degree Days 27 (Base 50)    
Moisture  
Dew Point 72 °F    
Average Humidity 86    
Maximum Humidity 97    
Minimum Humidity 74    
Precipitation  
Precipitation 0.00 in 0.11 in 5.50 in (1973)
Month to date precipitation 1.84  
Year to date precipitation 14.19  
Snow  
Snow 0.00 in 0.00 in 0.00 in ()
Month to date snowfall 0.0  
Since 1 July snowfall 0.1  
Snow Depth -    
Sea Level Pressure  
Sea Level Pressure 29.96 in    
Wind  
Wind Speed 10 mph (SE)    
Max Wind Speed 18 mph    
Max Gust Speed 28 mph    
Visibility 10 miles    
Events      
T = Trace of Precipitation, MM = Missing Value Source: NWS Daily Summary

Daily Weather History Graph

Daily Weather History Graph

Search for Another Location

Airport:

Trip Planner

Search our weather history database for the weather conditions in past years. The results will help you decide how hot, cold, wet, or windy it might be!

Date:

Astronomy

Apr. 17, 2013 Rise Set
Actual Time 6:41 AM CDT 7:39 PM CDT
Civil Twilight 6:16 AM CDT 8:04 PM CDT
Nautical Twilight 5:47 AM CDT 8:33 PM CDT
Astronomical Twilight 5:17 AM CDT 9:03 PM CDT
Moon 12:03 PM CDT (4/17) 1:09 AM CDT (4/17)
Length of Visible Light 13h 47m
Length of Day
12h 58m
Waxing Crescent, 42% of the Moon is Illuminated
Apr 17
Waxing Crescent
Apr 18
First Quarter
Apr 25
Full
May 2
Last Quarter
May 9
New

Hourly Weather History & Observations

Time (CDT) Temp. Heat Index Dew Point Humidity Pressure Visibility Wind Dir Wind Speed Gust Speed Precip Events Conditions
12:15 AM 74.5 °F - 72.1 °F 92% 30.01 in 10.0 mi SE 9.2 mph 16.1 mph N/A   Overcast
12:35 AM 74.3 °F - 71.8 °F 92% 30.00 in 10.0 mi SE 11.5 mph 19.6 mph N/A   Overcast
12:55 AM 74.3 °F - 72.0 °F 92% 29.99 in 10.0 mi SE 11.5 mph 19.6 mph N/A   Overcast
1:15 AM 74.3 °F - 72.0 °F 92% 29.99 in 10.0 mi SE 8.1 mph 17.3 mph N/A   Overcast
1:35 AM 74.1 °F - 72.0 °F 93% 29.99 in 10.0 mi SE 11.5 mph 19.6 mph N/A   Overcast
1:55 AM 73.9 °F - 71.6 °F 92% 29.99 in 10.0 mi SE 8.1 mph 17.3 mph N/A   Overcast
2:15 AM 73.9 °F - 71.8 °F 93% 29.98 in 10.0 mi SE 10.4 mph - N/A   Overcast
2:35 AM 73.9 °F - 71.8 °F 93% 29.98 in 10.0 mi SE 10.4 mph - N/A   Overcast
2:55 AM 73.9 °F - 71.6 °F 92% 29.97 in 10.0 mi SE 9.2 mph - N/A   Overcast
3:15 AM 73.9 °F - 71.6 °F 92% 29.97 in 10.0 mi SE 10.4 mph - N/A   Overcast
3:35 AM 73.9 °F - 71.6 °F 92% 29.97 in 10.0 mi SE 6.9 mph - N/A   Overcast
3:55 AM 73.8 °F - 71.2 °F 92% 29.97 in 10.0 mi SE 10.4 mph - N/A   Overcast
4:15 AM 73.8 °F - 71.1 °F 91% 29.97 in 10.0 mi SSE 8.1 mph - N/A   Overcast
4:35 AM 73.6 °F - 71.1 °F 92% 29.98 in 10.0 mi SSE 5.8 mph - N/A   Overcast
4:55 AM 73.8 °F - 71.1 °F 91% 29.98 in 10.0 mi SSE 4.6 mph - N/A   Overcast
5:15 AM 73.4 °F - 71.2 °F 93% 29.99 in 10.0 mi Calm Calm - N/A   Overcast
5:35 AM 73.4 °F - 71.6 °F 94% 29.99 in 10.0 mi Calm Calm - N/A   Overcast
5:55 AM 73.4 °F - 71.6 °F 94% 29.99 in 10.0 mi SSE 3.5 mph - N/A   Overcast
6:15 AM 73.4 °F - 71.6 °F 94% 29.99 in 10.0 mi SE 6.9 mph - N/A   Overcast
6:35 AM 73.0 °F - 71.6 °F 95% 29.99 in 10.0 mi SE 3.5 mph - N/A   Overcast
6:55 AM 72.9 °F - 71.6 °F 96% 30.00 in 7.0 mi SE 5.8 mph - N/A   Overcast
7:15 AM 72.5 °F - 71.6 °F 97% 30.01 in 7.0 mi SE 4.6 mph - N/A   Overcast
7:35 AM 72.5 °F - 71.6 °F 97% 30.01 in 7.0 mi SE 5.8 mph - N/A   Mostly Cloudy
7:55 AM 72.5 °F - 71.2 °F 96% 30.01 in 7.0 mi SE 5.8 mph - N/A   Mostly Cloudy
8:15 AM 73.2 °F - 71.2 °F 93% 30.01 in 7.0 mi SE 10.4 mph - N/A   Overcast
8:35 AM 74.1 °F - 71.1 °F 90% 30.01 in 10.0 mi SE 6.9 mph 16.1 mph N/A   Overcast
9:15 AM 75.2 °F - 70.9 °F 86% 30.01 in 10.0 mi SE 9.2 mph - N/A   Overcast
9:35 AM 74.8 °F - 70.7 °F 87% 30.02 in 10.0 mi SSE 10.4 mph - N/A   Overcast
9:55 AM 76.5 °F - 71.2 °F 84% 30.02 in 10.0 mi SE 9.2 mph - N/A   Overcast
10:15 AM 77.2 °F - 71.2 °F 82% 30.02 in 10.0 mi SSE 12.7 mph 20.7 mph N/A   Overcast
10:35 AM 77.9 °F - 71.8 °F 81% 30.02 in 10.0 mi SSE 10.4 mph 18.4 mph N/A   Overcast
10:55 AM 78.1 °F - 71.4 °F 80% 30.02 in 10.0 mi SSE 9.2 mph 16.1 mph N/A   Overcast
11:15 AM 79.5 °F - 71.8 °F 77% 30.01 in 10.0 mi SE 11.5 mph 18.4 mph N/A   Overcast
11:35 AM 79.5 °F - 71.4 °F 76% 30.00 in 10.0 mi SSE 12.7 mph 19.6 mph N/A   Overcast
11:55 AM 80.4 °F 84.4 °F 71.8 °F 75% 30.00 in 10.0 mi SSE 8.1 mph 21.9 mph N/A   Overcast
12:15 PM 79.2 °F - 71.2 °F 77% 30.00 in 10.0 mi SSE 13.8 mph 21.9 mph N/A   Overcast
12:35 PM 80.2 °F 84.0 °F 71.8 °F 75% 29.99 in 10.0 mi SSE 11.5 mph 20.7 mph N/A   Overcast
12:55 PM 79.9 °F - 71.6 °F 76% 29.98 in 10.0 mi SE 10.4 mph 25.3 mph N/A   Overcast
1:15 PM 79.7 °F - 71.8 °F 77% 29.97 in 10.0 mi SE 12.7 mph 23.0 mph N/A   Overcast
1:35 PM 80.8 °F 85.1 °F 72.3 °F 75% 29.97 in 10.0 mi SE 18.4 mph 26.5 mph N/A   Overcast
1:55 PM 81.0 °F 85.4 °F 72.5 °F 75% 29.97 in 10.0 mi SSE 11.5 mph 19.6 mph N/A   Overcast
2:15 PM 81.7 °F 86.7 °F 72.9 °F 74% 29.96 in 10.0 mi SE 16.1 mph 23.0 mph N/A   Overcast
2:35 PM 81.9 °F 87.3 °F 73.2 °F 75% 29.96 in 10.0 mi SE 15.0 mph 20.7 mph N/A   Overcast
2:55 PM 81.0 °F 85.6 °F 72.7 °F 76% 29.95 in 10.0 mi SSE 16.1 mph 24.2 mph N/A   Overcast
3:35 PM 81.5 °F 86.3 °F 72.5 °F 74% 29.93 in 10.0 mi SSE 13.8 mph 24.2 mph N/A   Overcast
3:55 PM 82.0 °F 87.4 °F 72.9 °F 74% 29.92 in 10.0 mi SSE 17.3 mph 23.0 mph N/A   Mostly Cloudy
4:15 PM 82.4 °F 88.2 °F 73.4 °F 74% 29.91 in 10.0 mi SSE 15.0 mph 23.0 mph N/A   Mostly Cloudy
4:35 PM 81.9 °F 87.0 °F 72.9 °F 74% 29.90 in 10.0 mi SE 17.3 mph 25.3 mph N/A   Scattered Clouds
4:55 PM 80.6 °F 84.9 °F 72.5 °F 76% 29.90 in 10.0 mi SE 11.5 mph 26.5 mph N/A   Mostly Cloudy
5:15 PM 79.9 °F - 72.7 °F 79% 29.90 in 10.0 mi SE 10.4 mph 23.0 mph N/A   Mostly Cloudy
5:35 PM 79.5 °F - 72.7 °F 79% 29.90 in 10.0 mi SE 12.7 mph 20.7 mph N/A   Overcast
5:55 PM 79.3 °F - 72.3 °F 79% 29.89 in 10.0 mi SE 13.8 mph 23.0 mph N/A   Overcast
6:15 PM 78.6 °F - 72.5 °F 81% 29.89 in 10.0 mi SE 16.1 mph 25.3 mph N/A   Overcast
6:35 PM 77.7 °F - 72.1 °F 83% 29.89 in 10.0 mi SSE 11.5 mph 19.6 mph N/A   Overcast
7:15 PM 76.5 °F - 71.4 °F 84% 29.89 in 10.0 mi SSE 12.7 mph - N/A   Overcast
7:35 PM 75.6 °F - 70.9 °F 85% 29.88 in 10.0 mi SE 13.8 mph 25.3 mph N/A   Overcast
7:55 PM 75.4 °F - 70.9 °F 86% 29.87 in 10.0 mi SE 16.1 mph 24.2 mph N/A   Overcast
8:15 PM 75.6 °F - 71.2 °F 86% 29.88 in 10.0 mi SE 11.5 mph 21.9 mph N/A   Overcast
8:35 PM 75.6 °F - 71.6 °F 87% 29.88 in 10.0 mi SSE 11.5 mph 20.7 mph N/A   Overcast
8:55 PM 75.6 °F - 71.6 °F 87% 29.88 in 10.0 mi SE 13.8 mph - N/A   Overcast
9:15 PM 75.4 °F - 71.6 °F 88% 29.88 in 10.0 mi SSE 11.5 mph 21.9 mph N/A   Overcast
9:55 PM 75.4 °F - 71.8 °F 89% 29.88 in 10.0 mi SE 12.7 mph 21.9 mph N/A   Overcast
10:15 PM 75.4 °F - 71.8 °F 89% 29.88 in 10.0 mi SE 11.5 mph 27.6 mph N/A   Overcast
10:35 PM 75.2 °F - 71.6 °F 89% 29.87 in 10.0 mi SE 16.1 mph 25.3 mph N/A   Overcast
10:55 PM 75.2 °F - 71.6 °F 89% 29.88 in 10.0 mi SSE 13.8 mph 25.3 mph N/A   Overcast
11:15 PM 75.2 °F - 71.6 °F 89% 29.88 in 10.0 mi SSE 16.1 mph 27.6 mph N/A   Overcast
11:35 PM 75.2 °F - 71.2 °F 87% 29.88 in 10.0 mi SSE 12.7 mph 24.2 mph N/A   Overcast
11:55 PM 74.8 °F - 71.4 °F 89% 29.87 in 10.0 mi SSE 11.5 mph 21.9 mph N/A   Overcast